Weather History for KLND - April, 2014

Change the Weather History Date:

Tuesday, April 1, 2014

  Actual Average Record
Temperature  
Mean Temperature 36 °F 40 °F  
Max Temperature 45 °F 52 °F 72 °F (2004)
Min Temperature 27 °F 28 °F -3 °F (1936)
Degree Days  
Heating Degree Days 29 25  
Month to date heating degree days 29 25  
Since 1 July heating degree days 6660 6644  
Cooling Degree Days 0 0  
Month to date cooling degree days 0 0  
Year to date cooling degree days 0 0  
Moisture  
Dew Point 27 °F    
Average Humidity 75    
Maximum Humidity 100    
Minimum Humidity 49    
Precipitation  
Precipitation T in 0.05 in 1.59 in (1957)
Month to date precipitation T 0.05  
Year to date precipitation 1.98 2.20  
Snow  
Snow 0.00 in 0.60 in - ()
Month to date snowfall 0.0 0.6  
Since 1 July snowfall 69.2 70.3  
Snow Depth 0.00 in    
Sea Level Pressure  
Sea Level Pressure 29.72 in    
Wind  
Wind Speed 5 mph (WNW)    
Max Wind Speed 16 mph    
Max Gust Speed 20 mph    
Visibility 10 miles    
Events Rain    
T = Trace of Precipitation, MM = Missing Value Source: NWS Daily Summary

Daily Weather History Graph

Daily Weather History Graph

Search for Another Location

Airport or City:

Trip Planner

Search our weather history database for the weather conditions in past years. The results will help you decide how hot, cold, wet, or windy it might be!

Date:

Astronomy

Apr. 01, 2014 Rise Set
Actual Time 6:56 AM MDT 7:41 PM MDT
Civil Twilight 6:28 AM MDT 8:09 PM MDT
Nautical Twilight 5:54 AM MDT 8:43 PM MDT
Astronomical Twilight 5:19 AM MDT 9:19 PM MDT
Moon 7:59 AM MDT (4/1) 10:10 PM MDT (4/1)
Length of Visible Light 13h 41m
Length of Day
12h 44m
Waxing Crescent, 5% of the Moon is Illuminated
Apr 1
Waxing Crescent
Apr 7
First Quarter
Apr 15
Full
Apr 22
Last Quarter
Apr 29
New

Hourly Weather History & Observations

Time (MDT) Temp. Windchill Dew Point Humidity Pressure Visibility Wind Dir Wind Speed Gust Speed Precip Events Conditions
12:53 AM 30.0 °F 23.2 °F 24.1 °F 79% 29.85 in 10.0 mi WNW 6.9 mph - N/A   Clear
1:53 AM 30.9 °F 22.2 °F 24.1 °F 76% 29.82 in 10.0 mi NW 10.4 mph - N/A   Clear
2:53 AM 30.9 °F 22.8 °F 24.1 °F 76% 29.80 in 10.0 mi WNW 9.2 mph - N/A   Overcast
3:53 AM 30.9 °F 26.2 °F 25.0 °F 79% 29.78 in 10.0 mi West 4.6 mph - N/A   Overcast
4:53 AM 28.9 °F 23.9 °F 23.0 °F 78% 29.77 in 10.0 mi West 4.6 mph - N/A   Scattered Clouds
5:50 AM 28.4 °F 21.2 °F 23.0 °F 80% 29.74 in 10.0 mi WSW 6.9 mph - N/A   Mostly Cloudy
5:53 AM 28.9 °F 21.9 °F 23.0 °F 78% 29.76 in 10.0 mi West 6.9 mph - N/A   Mostly Cloudy
6:53 AM 28.9 °F 22.8 °F 23.0 °F 78% 29.76 in 10.0 mi West 5.8 mph - N/A   Overcast
7:31 AM 27.0 °F 18.7 °F 19.9 °F 75% 29.73 in 10.0 mi West 8.1 mph - N/A   Scattered Clouds
7:53 AM 28.0 °F 20.8 °F 19.9 °F 72% 29.78 in 10.0 mi West 6.9 mph - N/A   Clear
8:28 AM 28.0 °F - 24.1 °F 85% 29.74 in 10.0 mi Calm Calm - N/A   Mostly Cloudy
8:53 AM 32.0 °F 28.7 °F 24.1 °F 73% 29.78 in 10.0 mi ESE 3.5 mph - N/A   Overcast
9:21 AM 32.0 °F 27.5 °F 27.0 °F 82% 29.73 in 10.0 mi SE 4.6 mph - N/A   Scattered Clouds
9:53 AM 35.1 °F 31.0 °F 28.0 °F 76% 29.75 in 10.0 mi Variable 4.6 mph - N/A   Clear
10:53 AM 36.0 °F 33.3 °F 28.0 °F 73% 29.75 in 10.0 mi Variable 3.5 mph - N/A   Scattered Clouds
11:02 AM 37.9 °F 35.5 °F 28.9 °F 70% 29.72 in 10.0 mi Variable 3.5 mph - N/A   Mostly Cloudy
11:17 AM 37.9 °F 33.5 °F 27.0 °F 65% 29.71 in 10.0 mi NE 5.8 mph - N/A   Scattered Clouds
11:53 AM 37.9 °F - 27.0 °F 65% 29.73 in 10.0 mi Calm Calm - N/A   Scattered Clouds
12:05 PM 37.9 °F 32.7 °F 27.0 °F 65% 29.71 in 10.0 mi NNE 6.9 mph - N/A   Mostly Cloudy
12:53 PM 39.9 °F 37.8 °F 26.1 °F 58% 29.71 in 10.0 mi Variable 3.5 mph - N/A   Overcast
1:05 PM 41.0 °F 39.0 °F 27.0 °F 57% 29.69 in 10.0 mi ENE 3.5 mph - N/A   Overcast
1:53 PM 44.1 °F - 28.0 °F 53% 29.67 in 10.0 mi Calm Calm - N/A   Mostly Cloudy
2:53 PM 44.1 °F 41.5 °F 26.1 °F 49% 29.65 in 10.0 mi SE 4.6 mph - N/A   Mostly Cloudy
3:53 PM 43.0 °F - 25.0 °F 49% 29.65 in 10.0 mi Calm Calm - N/A   Overcast
4:53 PM 43.0 °F 38.2 °F 26.1 °F 51% 29.66 in 10.0 mi ESE 8.1 mph - N/A   Overcast
5:53 PM 43.0 °F - 27.0 °F 53% 29.67 in 10.0 mi Calm Calm - N/A   Overcast
6:53 PM 42.1 °F 39.2 °F 28.9 °F 60% 29.67 in 10.0 mi WSW 4.6 mph - N/A   Overcast
7:53 PM 41.0 °F - 28.0 °F 60% 29.68 in 9.0 mi North - - N/A   Overcast
8:53 PM 37.0 °F 33.3 °F 33.1 °F 86% 29.70 in 10.0 mi ESE 4.6 mph - 0.00 in   Overcast
9:53 PM 36.0 °F 33.3 °F 34.0 °F 93% 29.69 in 9.0 mi ESE 3.5 mph - N/A   Overcast
10:22 PM 35.1 °F 32.2 °F 34.0 °F 96% 29.68 in 6.0 mi SW 3.5 mph - 0.00 in Rain Light Rain
10:51 PM 35.6 °F 31.7 °F 33.8 °F 93% 29.66 in 9.0 mi NNW 4.6 mph - 0.00 in   Overcast
10:53 PM 35.1 °F 31.0 °F 33.1 °F 92% 29.66 in 9.0 mi NNW 4.6 mph - 0.00 in   Overcast
11:41 PM 34.0 °F 29.8 °F 33.1 °F 96% 29.64 in 8.0 mi NW 4.6 mph - 0.00 in   Mostly Cloudy
11:53 PM 34.0 °F 28.0 °F 33.1 °F 96% 29.65 in 8.0 mi NW 6.9 mph - 0.00 in   Partly Cloudy